STARLINK-1515 (46065 NORAD) Tracking and Keplerian Element Data

This shows tracking and keplerian element data for the satellite.

Feedback or suggestion? Click here.




ElementValue
Catalog46065
NameSTARLINK-1515
Epoch Orbit1843
Epoch Day330.8943837
Epoch Year2020
RAAN119.7931
Inclination53.0022
Eccentricity0.00012
Argument of Perigee92.0138
Mean Anonmoly268.0987
Mean Motion15.05575384
Decay Rate6.77E-06
L11 46065U 20055AQ 20330.89438370 .00000677 00000-0 65664-4 0 9994
L22 46065 53.0022 119.7931 0001200 92.0138 268.0987 15.05575384 18431

Live tracking and technical data element details for STARLINK-1515 (NORAD 46065). STARLINK-1515 can be tracked NOW for your location showing map with azimuth and elevation plus other details from your city location.

Track the satellite on the map from your city or location and see movement details for azimuth, elevation, latitude, longitude, range, height, and movement on the map or in text.







IsCatalogInMostPopularTable: catalog: 46065, numindb: 27
Update: records affected: 1



GetName: 46065 STARLINK-1515

Hit Count: updated at: Thu, 26 Nov 2020 23:35:06 GMT